Location: *
(53.9002°N, 27.5624°E)
Time: 04:08:16
(UTC+00:00)

NOSS 3-1 (A) - Visible Passes

Search period start: 28 February 2020 00:00
Search period end: 09 March 2020 00:00
Orbit: 762 x 1450 km, 63.4° (Epoch: 22 February)

Date Brightness Start Highest point End Pass type
(mag) Time Alt. Az. Time Alt. Az. Time Alt. Az.
28 Feb 3.6 16:45:24 10° SW 16:51:11 82° NW 16:58:04 10° NE visible
28 Feb 4.6 18:37:07 10° W 18:42:57 41° NNW 18:47:16 21° NE visible
28 Feb 4.7 20:29:05 10° WNW 20:34:43 41° N 20:34:43 41° N visible
28 Feb 5.7 22:20:13 10° NW 22:22:10 21° NW 22:22:10 21° NW visible
29 Feb 4.4 17:52:00 10° W 17:57:50 47° NNW 18:04:02 13° NE visible
29 Feb 4.7 19:44:06 10° WNW 19:50:13 39° N 19:51:29 37° NNE visible
29 Feb 5.2 21:35:27 10° NW 21:38:56 32° NW 21:38:56 32° NW visible
01 Mar 4.1 17:06:57 10° WSW 17:12:46 56° NNW 17:19:42 10° NE visible
01 Mar 4.7 18:59:02 10° WNW 19:05:01 38° N 19:08:13 26° NE visible
01 Mar 4.7 20:50:39 10° NW 20:55:40 44° NNW 20:55:40 44° NNW visible
01 Mar 5.8 22:41:35 10° NW 22:43:06 18° NW 22:43:06 18° NW visible
02 Mar 3.8 16:22:01 10° WSW 16:27:50 70° NW 16:34:45 10° NE visible
02 Mar 4.7 18:13:57 10° WNW 18:19:49 40° N 18:24:56 17° NE visible
02 Mar 4.5 20:05:47 10° NW 20:12:16 45° NNE 20:12:23 45° NNE visible
02 Mar 5.3 21:56:49 10° NW 21:59:49 29° NW 21:59:49 29° NW visible
03 Mar 4.5 17:28:49 10° W 17:34:38 43° NNW 17:41:32 10° NE visible
03 Mar 4.7 19:20:51 10° WNW 19:27:05 41° N 19:29:05 35° NE visible
03 Mar 4.8 21:12:03 10° NW 21:16:31 43° NW 21:16:31 43° NW visible
03 Mar 6.0 23:03:03 10° NW 23:03:57 14° NW 23:03:57 14° NW visible
04 Mar 4.3 16:43:43 10° W 16:49:32 50° NNW 16:56:27 10° NE visible
04 Mar 4.7 18:35:50 10° WNW 18:41:53 39° N 18:45:47 23° NE visible
04 Mar 4.4 20:27:16 10° NW 20:33:13 54° N 20:33:13 54° N visible
04 Mar 5.5 22:18:12 10° NW 22:20:39 24° NW 22:20:39 24° NW visible
05 Mar 4.7 17:50:45 10° WNW 17:56:40 39° N 18:02:28 14° ENE visible
05 Mar 4.4 19:42:27 10° NW 19:49:04 49° NNE 19:49:55 47° NE visible
05 Mar 5.0 21:33:25 10° NW 21:37:21 38° NW 21:37:21 38° NW visible
06 Mar 4.6 17:05:38 10° W 17:11:29 41° N 17:18:22 10° ENE visible
06 Mar 4.6 18:57:34 10° NW 19:03:56 43° NNE 19:06:36 33° ENE visible
06 Mar 4.4 20:48:39 10° NW 20:54:03 57° NW 20:54:03 57° NW visible
06 Mar 5.8 22:39:45 10° NW 22:41:29 18° WNW 22:41:29 18° WNW visible
07 Mar 4.5 16:20:30 10° W 16:26:20 45° NNW 16:33:13 10° NE visible
07 Mar 4.7 18:12:36 10° WNW 18:18:45 40° N 18:23:18 21° ENE visible
07 Mar 4.1 20:03:53 10° NW 20:10:44 65° NNE 20:10:44 65° NNE visible
07 Mar 5.3 21:54:50 10° NW 21:58:11 29° WNW 21:58:11 29° WNW visible
08 Mar 4.7 17:27:33 10° WNW 17:33:33 38° N 17:40:00 12° ENE visible
08 Mar 4.3 19:19:05 10° NW 19:25:52 54° NNE 19:27:26 47° ENE visible
08 Mar 4.6 21:10:01 10° NW 21:14:53 47° WNW 21:14:53 47° WNW visible
08 Mar 6.1 23:01:44 10° WNW 23:02:20 12° WNW 23:02:20 12° WNW visible
